CYVRCYCD

Guest
Details From CYVR - Vancouver Intl
To CYCD - Nanaimo
Flight Number -
Tags generated
Created
Modified
Stats Distance 28 nm / 52 km
Max Altitude 0 ft / 0 m
Waypoints 2
Social Downloads 0
Likes 0
Share VATSIM

Download

Looking for another format? Having issues loading an existing format? Contact us
Advertisement - Login to hide

Notes

Basic altitude profile: - Ascent Rate: 2500ft/min - Ascent Speed: 250kts - Cruise Altitude: 35000ft - Cruise Speed: 420kts - Descent Rate: 1500ft/min - Descent Speed: 250kts Options: - Use NATs: yes - Use PACOTS: yes - Use low airways: no - Use high airways: yes

Route

CYVR CYCD

ID Type Via Altitude Latitude Longitude Leg Dist Tot Dist Heading (true) Name
O CYVR APT - 0 ft / 0 m 49.19233˚ -123.18799˚ - 0 nm - Vancouver Intl
O CYCD APT - 0 ft / 0 m 49.05237˚ -123.87011˚ 28 nm 28 nm 253° / 252° Nanaimo

Altitude Profile

Advertisement - Login to hide

CYVR

Details ICAO CYVR (YVR)
Name Vancouver Intl
Region Canada
Timezone America/Vancouver (UTC-7.0)
Stats Elevation 14 ft / 4 m (AMSL)
Location 49.192331° -123.187993°
Runways 4
Magnetic Variation 16.197° E

METAR

CYVR 271000Z 10007KT 20SM BKN070 12/07 A3022 RMK AC6 SLP235

Decode

TAF

TAF CYVR 270838Z 2709/2812 10010KT P6SM BKN080 FM271800 13010KT P6SM FEW060 FM272100 17008KT P6SM SKC BECMG 2802/2804 11010KT RMK NXT FCST BY 271200Z

Decode

Departure Runways

ID Width Length Bearing (true) Bearing (mag) Surface Threshold Offset Overrun Length
08 75 ft / 23 m 3,497 ft / 1,066 m 100.01° 83.81° Concrete 0 ft / 0 m 0 ft / 0 m
08L 200 ft / 61 m 9,910 ft / 3,021 m 99.80° 83.60° Concrete 0 ft / 0 m 0 ft / 0 m
08R 200 ft / 61 m 11,491 ft / 3,502 m 99.94° 83.74° Asphalt 0 ft / 0 m 0 ft / 0 m
12 200 ft / 61 m 7,291 ft / 2,222 m 141.91° 125.71° Asphalt 0 ft / 0 m 0 ft / 0 m
26 75 ft / 23 m 3,497 ft / 1,066 m 280.02° 263.82° Concrete 0 ft / 0 m 0 ft / 0 m
26L 200 ft / 61 m 11,491 ft / 3,502 m 279.97° 263.77° Asphalt 0 ft / 0 m 0 ft / 0 m
26R 200 ft / 61 m 9,910 ft / 3,021 m 279.83° 263.63° Concrete 0 ft / 0 m 0 ft / 0 m
30 200 ft / 61 m 7,291 ft / 2,222 m 321.93° 305.73° Asphalt 0 ft / 0 m 0 ft / 0 m

CYCD

Details ICAO CYCD (YCD)
Name Nanaimo
Region Canada
Timezone America/Vancouver (UTC-7.0)
Stats Elevation 93 ft / 28 m (AMSL)
Location 49.052367° -123.870111°
Runways 1
Magnetic Variation 16.272° E

METAR

Not found

TAF

TAF CYCD 262338Z 2700/2704 04008KT P6SM FEW040 BKN060 OVC230 RMK NXT FCST WILL BE ISSUED AT 271445Z

Decode

Destination Runways

ID Width Length Bearing (true) Bearing (mag) Surface Threshold Offset Overrun Length
16 200 ft / 61 m 5,018 ft / 1,529 m 180.75° 164.48° Asphalt 0 ft / 0 m 0 ft / 0 m
34 200 ft / 61 m 5,018 ft / 1,529 m 0.75° 344.48° Asphalt 1,001 ft / 305 m 0 ft / 0 m

Popular Alternatives